Location: Recife
(8.0585°S, 34.8848°W)
Time: 11:12:27
(UTC-03:00)

Transit 2A - Pass Details

Date: 18 April 2026
Orbit: 594 x 950 km, 66.7° (Epoch: 14 May)

Event Time Altitude Azimuth Distance (km) Brightness Sun altitude
Rises 19:47:58 0° 205° (SSW) 3,430 9.6 -38.0°
Enters shadow 19:49:32 - 206° (SSW) 2,849 9.1 -38.4°
Reaches altitude 10° 19:50:23 10° 207° (SSW) 2,535 - -38.6°
Maximum altitude 19:56:18 70° 289° (WNW) 978 - -40.0°
Drops below altitude 10° 20:02:31 10° 12° (NNE) 2,655 - -41.6°
Sets 20:05:06 0° 15° (NNE) 3,602 - -42.2°
